{"data":{"norad_id":63974,"intl_designator":"2025-099Y","name":"STARLINK-33942","alt_names":[],"object_type":"PAYLOAD","status":"ACTIVE","operator":null,"country":"US","launch_date":"2025-05-13","launch_site_code":"AFETR","launch_vehicle":null,"mission":null,"orbit_class":"UNKNOWN","rcs_meters":null,"size_class":null,"mass_kg":null,"dimensions":null,"purposes":["comms"],"wikipedia_slug":null,"has_3d_model":false,"image_url":null,"decayed_at":null,"tle_current":{"epoch":"2026-05-25T04:30:19.217088Z","epoch_age_seconds":49053,"freshness":"FRESH","line1":"1 63974U 25099Y   26145.18772242  .00018178  00000+0  66816-3 0  9999","line2":"2 63974  43.0040 100.9080 0001669 260.7323  99.3340 15.27594710 59075","mean_motion":15.2759471,"eccentricity":0.0001669,"inclination_deg":43.004,"raan_deg":100.908,"arg_perigee_deg":260.7323,"mean_anomaly_deg":99.334,"bstar":0.00066816,"rev_number":5907,"period_min":94.265840970345,"perigee_km":481.85992475318,"apogee_km":484.15017396926,"semimajor_km":6861.1420493612,"source":"CELESTRAK","updated_at":"2026-05-25T13:38:20.215775Z"}}}